Zurück zum Katalog

ION SCV-013

AktivKommunikationSSO
NORAD 58300·PAYLOAD·🇮🇹 Italy

Gestartet Nov 11, 2023 von Vandenberg Space Force Base

Loading…

Nächste Überflüge (nächste 24 Stunden)

TLE

AktuellSource: Space-Track

Epoche: Sep 14, 2026, 21:41 UTC

1 58300U 23174AW  26257.90372287  .00001957  00000-0  12735-3 0  9996
2 58300  97.6062 311.7715 0096612 250.7810 108.2943 15.05426034155031

Verfolge ION SCV-013 in Echtzeit mit AllMySat

Download on the App Store